CLW90B OBBI-VECC

Flight info

Callsign CLW90B
Flight time 4h 37m
Altitude 33000
Route GOLKO N318 VELAM P708 VUTAN N318 ALSEM L305 ASTOG/N0439F270 L305 KIVUS/N0464F330 P559 AMBOV Q322 LOVEM M677 KUSEN A791 KINOX/N0462F350 A791 LAKIV N894 TELEM A791 JJS
Aircraft B738/M-SDE2E3FGHIRWXY/LB1

Departure

Time 2026-04-25 18:37
Airport Bahrain International Airport (OBBI)

Arrival

Time 2026-04-25 23:15
Airport Netaji Subhash Chandra Bose International Airport (VECC)
Time Latitude Longitude Altitude Speed Heading
2026-04-25 18:12 26.26414 50.63769 21 ft 0 kts 212°
2026-04-25 18:30 26.26415 50.63769 -6 ft 1 kts 212°
2026-04-25 18:30 26.26428 50.63778 22 ft 2 kts 213°
2026-04-25 18:31 26.26442 50.63788 21 ft 2 kts 212°
2026-04-25 18:31 26.26456 50.63798 22 ft 2 kts 212°
2026-04-25 18:31 26.26470 50.63808 19 ft 2 kts 212°
2026-04-25 18:31 26.26483 50.63819 19 ft 2 kts 249°
2026-04-25 18:32 26.26484 50.63837 20 ft 2 kts 289°
2026-04-25 18:32 26.26480 50.63848 18 ft 1 kts 300°
2026-04-25 18:34 26.26497 50.63817 18 ft 12 kts 302°
2026-04-25 18:34 26.26565 50.63759 17 ft 13 kts 353°
2026-04-25 18:34 26.26602 50.63828 16 ft 12 kts 103°
2026-04-25 18:34 26.26562 50.63911 19 ft 12 kts 122°
2026-04-25 18:35 26.26511 50.64000 17 ft 15 kts 122°
2026-04-25 18:35 26.26444 50.64117 14 ft 20 kts 123°
2026-04-25 18:35 26.26395 50.64255 15 ft 15 kts 73°
2026-04-25 18:35 26.26441 50.64297 18 ft 0 kts 29°
2026-04-25 18:36 26.26444 50.64299 19 ft 3 kts 29°
2026-04-25 18:36 26.26501 50.64304 20 ft 15 kts 346°
2026-04-25 18:36 26.26601 50.64191 23 ft 28 kts 302°
2026-04-25 18:36 26.26757 50.63923 25 ft 59 kts 303°
2026-04-25 18:37 26.27082 50.63361 21 ft 121 kts 303°
2026-04-25 18:37 26.27648 50.62385 122 ft 171 kts 304°
2026-04-25 18:37 26.28411 50.61302 755 ft 186 kts 322°
2026-04-25 18:37 26.29586 50.60631 1401 ft 197 kts 353°
2026-04-25 18:38 26.30983 50.60418 2044 ft 209 kts 348°
2026-04-25 18:38 26.32476 50.59969 2381 ft 233 kts 347°
2026-04-25 18:38 26.34081 50.59508 2986 ft 241 kts 347°
2026-04-25 18:38 26.35725 50.59065 3635 ft 244 kts 348°
2026-04-25 18:39 26.37420 50.58928 3933 ft 247 kts 11°
2026-04-25 18:39 26.39021 50.59727 3996 ft 262 kts 39°
2026-04-25 18:39 26.40120 50.61352 4051 ft 266 kts 69°
2026-04-25 18:39 26.40373 50.63372 4452 ft 270 kts 96°
2026-04-25 18:40 26.39839 50.65400 4957 ft 270 kts 115°
2026-04-25 18:40 26.39020 50.67272 5422 ft 273 kts 118°
2026-04-25 18:40 26.38136 50.69167 5878 ft 277 kts 119°
2026-04-25 18:40 26.37236 50.71084 6376 ft 280 kts 118°
2026-04-25 18:41 26.36331 50.73025 6899 ft 285 kts 118°
2026-04-25 18:41 26.35415 50.75005 7548 ft 288 kts 118°
2026-04-25 18:41 26.34501 50.76997 8242 ft 291 kts 118°
2026-04-25 18:41 26.33575 50.79023 8852 ft 296 kts 119°
2026-04-25 18:42 26.32635 50.81089 9510 ft 300 kts 119°
2026-04-25 18:42 26.32328 50.81764 9723 ft 302 kts 119°
2026-04-25 18:42 26.30702 50.85345 10432 ft 323 kts 119°
2026-04-25 18:42 26.29654 50.87654 10593 ft 344 kts 119°
2026-04-25 18:43 26.28544 50.90102 10739 ft 363 kts 118°
2026-04-25 18:43 26.27394 50.92641 10916 ft 380 kts 118°
2026-04-25 18:43 26.26190 50.95301 11336 ft 387 kts 118°
2026-04-25 18:43 26.24975 50.97987 11905 ft 389 kts 118°
2026-04-25 18:44 26.23755 51.00686 12492 ft 391 kts 118°
2026-04-25 18:44 26.22523 51.03406 13062 ft 394 kts 118°
2026-04-25 18:44 26.21284 51.06140 13618 ft 397 kts 118°
2026-04-25 18:44 26.20029 51.08904 14120 ft 401 kts 118°
2026-04-25 18:45 26.18765 51.11687 14591 ft 404 kts 118°
2026-04-25 18:45 26.17489 51.14495 15050 ft 408 kts 118°
2026-04-25 18:45 26.16487 51.16698 15421 ft 411 kts 118°
2026-04-25 18:45 26.15821 51.18161 15663 ft 413 kts 118°
2026-04-25 18:46 26.14547 51.20960 16107 ft 417 kts 118°
2026-04-25 18:46 26.13231 51.23849 16554 ft 420 kts 118°
2026-04-25 18:46 26.11902 51.26764 17005 ft 424 kts 118°
2026-04-25 18:46 26.10560 51.29708 17445 ft 428 kts 118°
2026-04-25 18:47 26.09203 51.32680 17882 ft 432 kts 118°
2026-04-25 18:47 26.07837 51.35671 18302 ft 436 kts 118°
2026-04-25 18:47 26.06456 51.38692 18701 ft 438 kts 119°
2026-04-25 18:47 26.05072 51.41718 19113 ft 440 kts 119°
2026-04-25 18:48 26.03681 51.44759 19521 ft 443 kts 119°
2026-04-25 18:48 26.02278 51.47821 19910 ft 445 kts 120°
2026-04-25 18:48 26.00869 51.50896 20293 ft 448 kts 120°
2026-04-25 18:48 25.99471 51.53944 20671 ft 450 kts 120°
2026-04-25 18:49 25.98046 51.57049 21037 ft 452 kts 120°
2026-04-25 18:49 25.96611 51.60176 21401 ft 455 kts 120°
2026-04-25 18:49 25.95167 51.63317 21762 ft 457 kts 120°
2026-04-25 18:49 25.93716 51.66474 22102 ft 460 kts 120°
2026-04-25 18:50 25.92257 51.69645 22439 ft 462 kts 121°
2026-04-25 18:50 25.90790 51.72831 22774 ft 465 kts 121°
2026-04-25 18:50 25.89280 51.76009 23098 ft 466 kts 122°
2026-04-25 18:50 25.87718 51.79178 23407 ft 468 kts 123°
2026-04-25 18:51 25.86144 51.82351 23696 ft 471 kts 122°
2026-04-25 18:51 25.85611 51.83430 23783 ft 471 kts 122°
2026-04-25 18:51 25.83030 51.88781 24235 ft 475 kts 120°
2026-04-25 18:51 25.81587 51.92099 24495 ft 478 kts 118°
2026-04-25 18:52 25.80194 51.95459 24751 ft 480 kts 118°
2026-04-25 18:52 25.78811 51.98838 25003 ft 482 kts 118°
2026-04-25 18:52 25.77418 52.02230 25252 ft 484 kts 118°
2026-04-25 18:52 25.76008 52.05627 25495 ft 485 kts 118°
2026-04-25 18:53 25.74584 52.09029 25743 ft 487 kts 119°
2026-04-25 18:53 25.73149 52.12439 25976 ft 489 kts 119°
2026-04-25 18:53 25.71704 52.15858 26204 ft 491 kts 119°
2026-04-25 18:53 25.70250 52.19297 26431 ft 492 kts 119°
2026-04-25 18:54 25.67362 52.26125 27069 ft 491 kts 119°
2026-04-25 18:54 25.65914 52.29547 27435 ft 490 kts 120°
2026-04-25 18:54 25.64468 52.32964 27785 ft 489 kts 120°
2026-04-25 18:55 25.63019 52.36380 28090 ft 489 kts 120°
2026-04-25 18:55 25.61559 52.39776 28420 ft 487 kts 122°
2026-04-25 18:55 25.59981 52.43086 28763 ft 485 kts 124°
2026-04-25 18:55 25.58327 52.46333 29126 ft 483 kts 125°
2026-04-25 18:56 25.56671 52.49565 29485 ft 484 kts 122°
2026-04-25 18:56 25.55372 52.53026 29809 ft 490 kts 112°
2026-04-25 18:56 25.54548 52.56705 30147 ft 494 kts 103°
2026-04-25 18:56 25.54196 52.60509 30413 ft 498 kts 95°
2026-04-25 18:57 25.54090 52.64343 30669 ft 499 kts 94°
2026-04-25 18:57 25.54021 52.68187 30923 ft 499 kts 94°
2026-04-25 18:57 25.53957 52.72029 31215 ft 498 kts 93°
2026-04-25 18:57 25.53934 52.73274 31316 ft 498 kts 94°
2026-04-25 18:58 25.53796 52.79641 31806 ft 496 kts 94°
2026-04-25 18:58 25.53585 52.87289 32348 ft 495 kts 94°
2026-04-25 18:58 25.53471 52.91094 32631 ft 494 kts 94°
2026-04-25 18:59 25.53235 52.98720 32906 ft 498 kts 93°
2026-04-25 18:59 25.52996 53.06375 32916 ft 497 kts 94°
2026-04-25 19:00 25.52673 53.16590 32925 ft 503 kts 94°
2026-04-25 19:01 25.52296 53.28298 32914 ft 509 kts 94°
2026-04-25 19:01 25.52039 53.36138 32914 ft 510 kts 94°
2026-04-25 19:02 25.51645 53.47902 32910 ft 509 kts 94°
2026-04-25 19:03 25.51289 53.58313 32910 ft 507 kts 94°
2026-04-25 19:03 25.50972 53.67364 32911 ft 505 kts 94°
2026-04-25 19:04 25.50557 53.78999 32908 ft 503 kts 94°
2026-04-25 19:05 25.49992 53.94464 32912 ft 501 kts 94°
2026-04-25 19:06 25.49703 54.02187 32913 ft 501 kts 94°
2026-04-25 19:06 25.49265 54.13690 32907 ft 501 kts 94°
2026-04-25 19:07 25.48817 54.25252 32910 ft 502 kts 94°
2026-04-25 19:08 25.48357 54.36864 32910 ft 503 kts 94°
2026-04-25 19:09 25.47783 54.51041 32903 ft 504 kts 94°
2026-04-25 19:10 25.47247 54.64000 32909 ft 505 kts 94°
2026-04-25 19:10 25.46922 54.71717 32903 ft 505 kts 94°
2026-04-25 19:11 25.46591 54.79483 32906 ft 504 kts 94°
2026-04-25 19:11 25.46257 54.87234 32906 ft 503 kts 94°
2026-04-25 19:12 25.45921 54.94911 32903 ft 501 kts 94°
2026-04-25 19:12 25.45582 55.02603 32901 ft 500 kts 94°
2026-04-25 19:13 25.45238 55.10281 32899 ft 498 kts 94°
2026-04-25 19:13 25.44893 55.17928 32900 ft 496 kts 94°
2026-04-25 19:14 25.44503 55.25540 32898 ft 494 kts 98°
2026-04-25 19:14 25.43507 55.33048 32916 ft 492 kts 102°
2026-04-25 19:15 25.42342 55.40499 32907 ft 491 kts 102°
2026-04-25 19:15 25.41232 55.47916 32914 ft 492 kts 101°
2026-04-25 19:16 25.40154 55.55386 32912 ft 492 kts 101°
2026-04-25 19:16 25.39078 55.62863 32916 ft 493 kts 101°
2026-04-25 19:17 25.37992 55.70358 32918 ft 494 kts 101°
2026-04-25 19:17 25.36898 55.77870 32921 ft 495 kts 100°
2026-04-25 19:18 25.36057 55.85433 32937 ft 496 kts 97°
2026-04-25 19:18 25.35274 55.93026 32932 ft 497 kts 98°
2026-04-25 19:19 25.34433 56.00612 32934 ft 497 kts 98°
2026-04-25 19:19 25.33596 56.08152 32926 ft 498 kts 98°
2026-04-25 19:20 25.32743 56.15747 32914 ft 498 kts 98°
2026-04-25 19:20 25.32063 56.23364 32914 ft 498 kts 96°
2026-04-25 19:21 25.31482 56.30989 32910 ft 497 kts 96°
2026-04-25 19:21 25.30613 56.42403 32901 ft 497 kts 93°
2026-04-25 19:22 25.30425 56.50039 32905 ft 496 kts 91°
2026-04-25 19:23 25.30129 56.61468 32883 ft 496 kts 92°
2026-04-25 19:23 25.29785 56.72847 32873 ft 496 kts 92°
2026-04-25 19:24 25.29556 56.80472 32872 ft 496 kts 92°
2026-04-25 19:25 25.29099 56.95725 32871 ft 496 kts 92°
2026-04-25 19:25 25.28870 57.03304 32874 ft 497 kts 92°
2026-04-25 19:26 25.28634 57.10934 32875 ft 497 kts 92°
2026-04-25 19:26 25.28405 57.18621 32873 ft 497 kts 92°
2026-04-25 19:27 25.28233 57.24969 32876 ft 497 kts 92°
2026-04-25 19:27 25.27990 57.33856 32873 ft 498 kts 92°
2026-04-25 19:28 25.27774 57.41495 32873 ft 498 kts 92°
2026-04-25 19:28 25.27551 57.49147 32875 ft 497 kts 92°
2026-04-25 19:29 25.27325 57.56783 32867 ft 497 kts 92°
2026-04-25 19:29 25.27095 57.64414 32868 ft 496 kts 92°
2026-04-25 19:30 25.26862 57.72040 32867 ft 496 kts 92°
2026-04-25 19:30 25.26626 57.79613 32866 ft 495 kts 92°
2026-04-25 19:31 25.26361 57.87214 32866 ft 494 kts 92°
2026-04-25 19:31 25.26082 57.94812 32862 ft 494 kts 92°
2026-04-25 19:32 25.25805 58.02341 32860 ft 493 kts 92°
2026-04-25 19:32 25.25617 58.07405 32861 ft 493 kts 92°
2026-04-25 19:33 25.25242 58.17467 32859 ft 492 kts 92°
2026-04-25 19:33 25.24955 58.25026 32854 ft 492 kts 92°
2026-04-25 19:34 25.24665 58.32565 32852 ft 491 kts 92°
2026-04-25 19:34 25.24371 58.40104 32849 ft 491 kts 92°
2026-04-25 19:35 25.24076 58.47589 32847 ft 491 kts 92°
2026-04-25 19:35 25.23775 58.55113 32848 ft 490 kts 92°
2026-04-25 19:36 25.23470 58.62637 32850 ft 490 kts 92°
2026-04-25 19:36 25.23162 58.70149 32845 ft 489 kts 92°
2026-04-25 19:37 25.22850 58.77657 32852 ft 489 kts 92°
2026-04-25 19:37 25.22535 58.85163 32844 ft 489 kts 92°
2026-04-25 19:38 25.22216 58.92660 32843 ft 488 kts 92°
2026-04-25 19:38 25.21895 59.00115 32842 ft 488 kts 92°
2026-04-25 19:39 25.21569 59.07599 32851 ft 487 kts 92°
2026-04-25 19:39 25.21240 59.15075 32847 ft 487 kts 92°
2026-04-25 19:40 25.20908 59.22535 32841 ft 486 kts 92°
2026-04-25 19:40 25.20574 59.29952 32843 ft 485 kts 93°
2026-04-25 19:41 25.20235 59.37397 32850 ft 485 kts 93°
2026-04-25 19:41 25.19998 59.42365 32845 ft 484 kts 93°
2026-04-25 19:42 25.19514 59.52250 32841 ft 484 kts 93°
2026-04-25 19:42 25.19148 59.59664 32845 ft 483 kts 93°
2026-04-25 19:43 25.18783 59.67019 32841 ft 482 kts 93°
2026-04-25 19:43 25.18412 59.74407 32845 ft 482 kts 93°
2026-04-25 19:44 25.18039 59.81790 32852 ft 481 kts 93°
2026-04-25 19:44 25.17662 59.89158 32855 ft 480 kts 93°
2026-04-25 19:45 25.17282 59.96515 32841 ft 480 kts 94°
2026-04-25 19:45 25.16899 60.03865 32839 ft 479 kts 94°
2026-04-25 19:46 25.16513 60.11204 32851 ft 478 kts 94°
2026-04-25 19:46 25.16125 60.18490 32861 ft 478 kts 94°
2026-04-25 19:47 25.15718 60.25854 32842 ft 477 kts 94°
2026-04-25 19:47 25.15311 60.33119 32843 ft 477 kts 94°
2026-04-25 19:48 25.14900 60.40430 32855 ft 477 kts 94°
2026-04-25 19:48 25.14556 60.46503 32852 ft 477 kts 94°
2026-04-25 19:49 25.14210 60.52579 32849 ft 477 kts 94°
2026-04-25 19:49 25.13719 60.61122 32844 ft 477 kts 94°
2026-04-25 19:50 25.13071 60.72048 32850 ft 477 kts 94°
2026-04-25 19:51 25.12628 60.79361 32840 ft 478 kts 94°
2026-04-25 19:51 25.12183 60.86681 32838 ft 478 kts 94°
2026-04-25 19:52 25.11734 60.94014 32836 ft 478 kts 94°
2026-04-25 19:52 25.11282 61.01342 32837 ft 478 kts 94°
2026-04-25 19:53 25.10829 61.08622 32837 ft 478 kts 94°
2026-04-25 19:53 25.10370 61.15946 32833 ft 478 kts 94°
2026-04-25 19:54 25.09908 61.23269 32835 ft 478 kts 94°
2026-04-25 19:54 25.09442 61.30586 32832 ft 478 kts 94°
2026-04-25 19:55 25.08972 61.37906 32832 ft 478 kts 94°
2026-04-25 19:55 25.08502 61.45179 32831 ft 478 kts 94°
2026-04-25 19:56 25.08027 61.52480 32828 ft 477 kts 94°
2026-04-25 19:56 25.07568 61.59785 32832 ft 477 kts 94°
2026-04-25 19:57 25.07140 61.67082 32833 ft 477 kts 94°
2026-04-25 19:57 25.06704 61.74378 32833 ft 476 kts 94°
2026-04-25 19:58 25.06146 61.81668 32834 ft 476 kts 99°
2026-04-25 19:58 25.04987 61.88860 32827 ft 476 kts 101°
2026-04-25 19:59 25.03712 61.95987 32844 ft 476 kts 101°
2026-04-25 19:59 25.02461 62.03179 32846 ft 477 kts 101°
2026-04-25 20:00 25.01244 62.10372 32835 ft 477 kts 101°
2026-04-25 20:00 25.00037 62.17574 32835 ft 477 kts 101°
2026-04-25 20:01 24.98224 62.28344 32830 ft 478 kts 101°
2026-04-25 20:01 24.97006 62.35547 32831 ft 478 kts 101°
2026-04-25 20:02 24.95783 62.42747 32837 ft 478 kts 101°
2026-04-25 20:02 24.94557 62.49944 32845 ft 478 kts 101°
2026-04-25 20:03 24.93327 62.57142 32840 ft 478 kts 101°
2026-04-25 20:03 24.92095 62.64333 32842 ft 477 kts 101°
2026-04-25 20:04 24.90869 62.71469 32835 ft 477 kts 101°
2026-04-25 20:04 24.89628 62.78672 32831 ft 477 kts 101°
2026-04-25 20:05 24.88388 62.85845 32832 ft 476 kts 101°
2026-04-25 20:05 24.87145 62.93011 32829 ft 476 kts 101°
2026-04-25 20:06 24.85902 63.00162 32839 ft 475 kts 101°
2026-04-25 20:06 24.84664 63.07257 32832 ft 474 kts 101°
2026-04-25 20:07 24.83417 63.14388 32827 ft 474 kts 101°
2026-04-25 20:07 24.82167 63.21513 32830 ft 474 kts 101°
2026-04-25 20:08 24.80916 63.28627 32828 ft 473 kts 101°
2026-04-25 20:08 24.79659 63.35749 32830 ft 473 kts 101°
2026-04-25 20:09 24.78408 63.42818 32831 ft 473 kts 101°
2026-04-25 20:09 24.77146 63.49929 32825 ft 473 kts 101°
2026-04-25 20:10 24.75880 63.57046 32825 ft 474 kts 101°
2026-04-25 20:10 24.74611 63.64156 32826 ft 474 kts 101°
2026-04-25 20:11 24.73336 63.71280 32836 ft 474 kts 101°
2026-04-25 20:11 24.72060 63.78389 32828 ft 474 kts 101°
2026-04-25 20:12 24.70779 63.85506 32831 ft 474 kts 101°
2026-04-25 20:12 24.70096 63.89293 32844 ft 474 kts 101°
2026-04-25 20:13 24.68378 63.98788 32837 ft 473 kts 101°
2026-04-25 20:13 24.67098 64.05845 32835 ft 473 kts 101°
2026-04-25 20:14 24.65806 64.12943 32837 ft 472 kts 101°
2026-04-25 20:14 24.64514 64.20025 32829 ft 472 kts 101°
2026-04-25 20:15 24.63220 64.27097 32834 ft 471 kts 101°
2026-04-25 20:15 24.61927 64.34148 32840 ft 470 kts 101°
2026-04-25 20:16 24.60630 64.41196 32834 ft 470 kts 101°
2026-04-25 20:16 24.59342 64.48179 32836 ft 469 kts 101°
2026-04-25 20:17 24.58040 64.55216 32834 ft 469 kts 101°
2026-04-25 20:17 24.56739 64.62231 32835 ft 468 kts 101°
2026-04-25 20:18 24.55435 64.69246 32840 ft 468 kts 101°
2026-04-25 20:18 24.54130 64.76250 32841 ft 468 kts 101°
2026-04-25 20:19 24.52841 64.83246 32835 ft 467 kts 98°
2026-04-25 20:19 24.52079 64.90285 32844 ft 466 kts 94°
2026-04-25 20:20 24.51501 64.97381 32839 ft 466 kts 94°
2026-04-25 20:20 24.50903 65.04469 32835 ft 466 kts 94°
2026-04-25 20:21 24.50264 65.11568 32835 ft 467 kts 95°
2026-04-25 20:21 24.49606 65.18655 32834 ft 467 kts 95°
2026-04-25 20:22 24.49167 65.23348 32836 ft 467 kts 95°
2026-04-25 20:22 24.48275 65.32840 32833 ft 467 kts 95°
2026-04-25 20:23 24.47611 65.39890 32833 ft 467 kts 95°
2026-04-25 20:23 24.46939 65.46982 32833 ft 467 kts 95°
2026-04-25 20:24 24.46263 65.54080 32833 ft 467 kts 95°
2026-04-25 20:24 24.45584 65.61185 32834 ft 467 kts 95°
2026-04-25 20:25 24.44902 65.68280 32833 ft 467 kts 95°
2026-04-25 20:25 24.44216 65.75372 32831 ft 467 kts 95°
2026-04-25 20:26 24.43533 65.82411 32836 ft 467 kts 95°
2026-04-25 20:26 24.42840 65.89509 32837 ft 467 kts 95°
2026-04-25 20:27 24.42145 65.96599 32832 ft 467 kts 95°
2026-04-25 20:27 24.41446 66.03692 32833 ft 467 kts 95°
2026-04-25 20:28 24.40744 66.10785 32833 ft 467 kts 95°
2026-04-25 20:28 24.40044 66.17827 32834 ft 467 kts 95°
2026-04-25 20:29 24.39335 66.24917 32835 ft 467 kts 95°
2026-04-25 20:29 24.38623 66.32002 32838 ft 467 kts 95°
2026-04-25 20:30 24.37909 66.39079 32832 ft 467 kts 95°
2026-04-25 20:30 24.37196 66.46118 32838 ft 466 kts 95°
2026-04-25 20:31 24.36475 66.53196 32836 ft 466 kts 95°
2026-04-25 20:31 24.35751 66.60265 32837 ft 465 kts 95°
2026-04-25 20:32 24.35026 66.67322 32834 ft 465 kts 95°
2026-04-25 20:32 24.34303 66.74318 32835 ft 464 kts 95°
2026-04-25 20:33 24.33573 66.81358 32835 ft 463 kts 96°
2026-04-25 20:33 24.33084 66.86052 32835 ft 463 kts 96°
2026-04-25 20:34 24.32110 66.95380 32837 ft 462 kts 96°
2026-04-25 20:34 24.31373 67.02375 32839 ft 461 kts 96°
2026-04-25 20:35 24.30624 67.09356 32836 ft 461 kts 96°
2026-04-25 20:35 24.29871 67.16329 32836 ft 460 kts 96°
2026-04-25 20:36 24.29123 67.23247 32840 ft 460 kts 96°
2026-04-25 20:36 24.28368 67.30210 32839 ft 460 kts 96°
2026-04-25 20:37 24.27610 67.37164 32842 ft 459 kts 96°
2026-04-25 20:37 24.26849 67.44115 32836 ft 459 kts 96°
2026-04-25 20:38 24.26086 67.51059 32834 ft 459 kts 96°
2026-04-25 20:38 24.25448 67.56834 32835 ft 459 kts 96°
2026-04-25 20:39 24.24680 67.63769 32839 ft 458 kts 96°
2026-04-25 20:39 24.24039 67.69535 32837 ft 458 kts 96°
2026-04-25 20:40 24.23132 67.77658 32841 ft 458 kts 96°
2026-04-25 20:40 24.22355 67.84590 32840 ft 458 kts 96°
2026-04-25 20:41 24.21574 67.91520 32839 ft 458 kts 96°
2026-04-25 20:41 24.20791 67.98449 32835 ft 458 kts 96°
2026-04-25 20:42 24.20009 68.05331 32835 ft 458 kts 96°
2026-04-25 20:42 24.19220 68.12252 32836 ft 458 kts 96°
2026-04-25 20:43 24.18428 68.19171 32835 ft 457 kts 96°
2026-04-25 20:43 24.17635 68.26070 32834 ft 456 kts 96°
2026-04-25 20:44 24.16839 68.32968 32832 ft 456 kts 96°
2026-04-25 20:44 24.16041 68.39854 32831 ft 455 kts 96°
2026-04-25 20:45 24.15244 68.46697 32831 ft 455 kts 96°
2026-04-25 20:45 24.14442 68.53566 32832 ft 455 kts 96°
2026-04-25 20:46 24.13636 68.60444 32831 ft 454 kts 96°
2026-04-25 20:46 24.12828 68.67311 32830 ft 454 kts 96°
2026-04-25 20:47 24.12022 68.74138 32826 ft 455 kts 96°
2026-04-25 20:47 24.11542 68.81026 32838 ft 453 kts 90°
2026-04-25 20:48 24.11481 68.87932 32821 ft 454 kts 89°
2026-04-25 20:48 24.11443 68.94855 32827 ft 454 kts 89°
2026-04-25 20:49 24.11367 69.01769 32823 ft 454 kts 90°
2026-04-25 20:49 24.11267 69.08686 32822 ft 455 kts 90°
2026-04-25 20:50 24.11157 69.15614 32821 ft 455 kts 90°
2026-04-25 20:50 24.11046 69.22493 32824 ft 455 kts 90°
2026-04-25 20:51 24.10931 69.29413 32824 ft 455 kts 90°
2026-04-25 20:51 24.10814 69.36341 32821 ft 454 kts 90°
2026-04-25 20:52 24.10715 69.42083 32822 ft 454 kts 90°
2026-04-25 20:52 24.10577 69.49829 32823 ft 453 kts 90°
2026-04-25 20:53 24.10451 69.56734 32820 ft 453 kts 90°
2026-04-25 20:53 24.10322 69.63631 32821 ft 453 kts 90°
2026-04-25 20:54 24.10190 69.70520 32822 ft 452 kts 90°
2026-04-25 20:54 24.10055 69.77409 32822 ft 452 kts 90°
2026-04-25 20:55 24.09918 69.84257 32820 ft 452 kts 90°
2026-04-25 20:55 24.09777 69.91138 32824 ft 452 kts 90°
2026-04-25 20:56 24.09633 69.98027 32823 ft 452 kts 90°
2026-04-25 20:56 24.09486 70.04922 32825 ft 452 kts 90°
2026-04-25 20:57 24.09336 70.11769 32825 ft 452 kts 90°
2026-04-25 20:57 24.09183 70.18658 32828 ft 453 kts 90°
2026-04-25 20:58 24.09026 70.25547 32826 ft 453 kts 90°
2026-04-25 20:58 24.08866 70.32450 32826 ft 453 kts 90°
2026-04-25 20:59 24.08703 70.39351 32824 ft 454 kts 90°
2026-04-25 20:59 24.08537 70.46263 32822 ft 454 kts 90°
2026-04-25 21:00 24.08425 70.50838 32825 ft 454 kts 90°
2026-04-25 21:01 24.08109 70.63492 32821 ft 454 kts 90°
2026-04-25 21:01 24.07931 70.70411 32815 ft 454 kts 90°
2026-04-25 21:02 24.07751 70.77324 32820 ft 454 kts 90°
2026-04-25 21:02 24.07567 70.84242 32810 ft 454 kts 90°
2026-04-25 21:03 24.07381 70.91153 32812 ft 454 kts 90°
2026-04-25 21:03 24.07192 70.98055 32811 ft 454 kts 90°
2026-04-25 21:04 24.07001 71.04914 32806 ft 453 kts 90°
2026-04-25 21:04 24.06807 71.11811 32807 ft 453 kts 90°
2026-04-25 21:05 24.06610 71.18702 32809 ft 453 kts 90°
2026-04-25 21:05 24.06410 71.25592 32801 ft 453 kts 90°
2026-04-25 21:06 24.06208 71.32480 32800 ft 453 kts 90°
2026-04-25 21:06 24.06003 71.39328 32797 ft 453 kts 90°
2026-04-25 21:07 24.05794 71.46213 32796 ft 453 kts 90°
2026-04-25 21:07 24.05582 71.53101 32790 ft 453 kts 90°
2026-04-25 21:08 24.05366 71.60004 32795 ft 453 kts 90°
2026-04-25 21:08 24.05148 71.66903 32791 ft 453 kts 90°
2026-04-25 21:09 24.04814 71.77239 32795 ft 453 kts 90°
2026-04-25 21:09 24.04589 71.84090 32792 ft 453 kts 91°
2026-04-25 21:10 24.04360 71.90982 32795 ft 453 kts 91°
2026-04-25 21:10 24.04128 71.97872 32793 ft 453 kts 91°
2026-04-25 21:11 24.03893 72.04758 32793 ft 453 kts 91°
2026-04-25 21:11 24.03655 72.11645 32797 ft 453 kts 91°
2026-04-25 21:12 24.03413 72.18530 32800 ft 453 kts 91°
2026-04-25 21:12 24.03210 72.24258 32797 ft 453 kts 91°
2026-04-25 21:13 24.02923 72.32268 32803 ft 454 kts 91°
2026-04-25 21:13 24.02671 72.39172 32805 ft 454 kts 91°
2026-04-25 21:14 24.02417 72.46089 32805 ft 455 kts 91°
2026-04-25 21:14 24.02159 72.53009 32806 ft 455 kts 91°
2026-04-25 21:15 24.01898 72.59934 32807 ft 456 kts 91°
2026-04-25 21:15 24.01638 72.66863 32803 ft 456 kts 90°
2026-04-25 21:16 24.01637 72.73788 32808 ft 455 kts 88°
2026-04-25 21:16 24.01774 72.80708 32803 ft 455 kts 88°
2026-04-25 21:17 24.01893 72.87635 32807 ft 455 kts 88°
2026-04-25 21:17 24.01983 72.94563 32808 ft 455 kts 88°
2026-04-25 21:18 24.02059 73.01463 32808 ft 455 kts 88°
2026-04-25 21:18 24.02132 73.08391 32810 ft 456 kts 88°
2026-04-25 21:19 24.02202 73.15326 32815 ft 456 kts 88°
2026-04-25 21:19 24.02270 73.22231 32815 ft 457 kts 88°
2026-04-25 21:20 24.02314 73.26880 32817 ft 457 kts 88°
2026-04-25 21:20 24.02397 73.36158 32820 ft 458 kts 88°
2026-04-25 21:21 24.02456 73.43134 32816 ft 459 kts 88°
2026-04-25 21:21 24.02512 73.50079 32823 ft 460 kts 88°
2026-04-25 21:22 24.02565 73.57077 32821 ft 460 kts 88°
2026-04-25 21:22 24.02614 73.64081 32820 ft 461 kts 88°
2026-04-25 21:23 24.02661 73.71098 32821 ft 461 kts 88°
2026-04-25 21:23 24.02705 73.78111 32819 ft 461 kts 88°
2026-04-25 21:24 24.02747 73.85152 32822 ft 462 kts 88°
2026-04-25 21:24 24.02785 73.92145 32824 ft 462 kts 88°
2026-04-25 21:25 24.02821 73.99184 32822 ft 463 kts 88°
2026-04-25 21:25 24.02854 74.06229 32821 ft 463 kts 88°
2026-04-25 21:26 24.02915 74.13268 32819 ft 463 kts 88°
2026-04-25 21:26 24.03009 74.19122 32824 ft 463 kts 88°
2026-04-25 21:27 24.03121 74.26160 32829 ft 463 kts 88°
2026-04-25 21:27 24.03236 74.34346 32834 ft 463 kts 88°
2026-04-25 21:28 24.03314 74.40245 32835 ft 463 kts 88°
2026-04-25 21:28 24.03404 74.47257 32836 ft 463 kts 88°
2026-04-25 21:29 24.03491 74.54303 32842 ft 462 kts 88°
2026-04-25 21:29 24.03575 74.61340 32843 ft 462 kts 88°
2026-04-25 21:30 24.03656 74.68322 32851 ft 462 kts 88°
2026-04-25 21:30 24.03554 74.74163 32843 ft 463 kts 95°
2026-04-25 21:31 24.01684 74.82143 32854 ft 464 kts 106°
2026-04-25 21:31 23.99712 74.88866 32850 ft 464 kts 106°
2026-04-25 21:32 23.97781 74.95550 32852 ft 464 kts 106°
2026-04-25 21:32 23.95869 75.02291 32860 ft 464 kts 106°
2026-04-25 21:33 23.93965 75.09039 32858 ft 464 kts 106°
2026-04-25 21:33 23.92062 75.15774 32857 ft 464 kts 106°
2026-04-25 21:34 23.90151 75.22519 32859 ft 464 kts 106°
2026-04-25 21:34 23.88251 75.29208 32857 ft 464 kts 106°
2026-04-25 21:35 23.86332 75.35955 32860 ft 464 kts 106°
2026-04-25 21:35 23.84412 75.42690 32864 ft 464 kts 106°
2026-04-25 21:36 23.82491 75.49420 32863 ft 464 kts 106°
2026-04-25 21:36 23.80566 75.56149 32867 ft 464 kts 106°
2026-04-25 21:37 23.78965 75.61738 32869 ft 464 kts 106°
2026-04-25 21:37 23.76719 75.69563 32868 ft 464 kts 107°
2026-04-25 21:38 23.74787 75.76279 32867 ft 464 kts 107°
2026-04-25 21:38 23.72852 75.82996 32866 ft 464 kts 107°
2026-04-25 21:39 23.70915 75.89708 32869 ft 464 kts 107°
2026-04-25 21:39 23.68975 75.96424 32870 ft 464 kts 107°
2026-04-25 21:40 23.67023 76.03151 32867 ft 464 kts 107°
2026-04-25 21:40 23.65074 76.09827 32866 ft 464 kts 107°
2026-04-25 21:41 23.63109 76.16542 32861 ft 464 kts 107°
2026-04-25 21:41 23.61143 76.23252 32861 ft 465 kts 107°
2026-04-25 21:42 23.59173 76.29972 32859 ft 465 kts 107°
2026-04-25 21:42 23.57201 76.36683 32851 ft 465 kts 107°
2026-04-25 21:43 23.55225 76.43396 32856 ft 465 kts 107°
2026-04-25 21:43 23.53260 76.50062 32854 ft 465 kts 107°
2026-04-25 21:44 23.51279 76.56769 32849 ft 465 kts 108°
2026-04-25 21:45 23.48301 76.66830 32847 ft 464 kts 108°
2026-04-25 21:45 23.46314 76.73529 32848 ft 464 kts 108°
2026-04-25 21:46 23.44340 76.80172 32842 ft 464 kts 108°
2026-04-25 21:46 23.42351 76.86854 32833 ft 463 kts 108°
2026-04-25 21:47 23.40360 76.93531 32832 ft 463 kts 108°
2026-04-25 21:47 23.38369 77.00198 32830 ft 463 kts 108°
2026-04-25 21:48 23.36378 77.06856 32829 ft 462 kts 108°
2026-04-25 21:48 23.34396 77.13468 32820 ft 463 kts 108°
2026-04-25 21:49 23.32397 77.20129 32820 ft 463 kts 108°
2026-04-25 21:49 23.30392 77.26798 32822 ft 463 kts 108°
2026-04-25 21:50 23.28497 77.33514 32805 ft 464 kts 102°
2026-04-25 21:50 23.27925 77.40114 32819 ft 465 kts 92°
2026-04-25 21:51 23.27719 77.46826 32811 ft 466 kts 92°
2026-04-25 21:51 23.27485 77.53835 32809 ft 467 kts 92°
2026-04-25 21:52 23.27207 77.60903 32805 ft 468 kts 92°
2026-04-25 21:52 23.26908 77.67993 32801 ft 469 kts 92°
2026-04-25 21:53 23.26602 77.75097 32798 ft 470 kts 93°
2026-04-25 21:53 23.26294 77.82215 32799 ft 471 kts 93°
2026-04-25 21:54 23.25984 77.89338 32795 ft 472 kts 93°
2026-04-25 21:54 23.25672 77.96438 32794 ft 473 kts 93°
2026-04-25 21:55 23.25354 78.03587 32794 ft 474 kts 93°
2026-04-25 21:55 23.25032 78.10752 32785 ft 474 kts 93°
2026-04-25 21:56 23.24706 78.17938 32790 ft 475 kts 93°
2026-04-25 21:56 23.24379 78.25083 32782 ft 476 kts 93°
2026-04-25 21:57 23.24046 78.32272 32785 ft 476 kts 93°
2026-04-25 21:57 23.23710 78.39466 32781 ft 477 kts 93°
2026-04-25 21:58 23.23369 78.46683 32783 ft 478 kts 93°
2026-04-25 21:58 23.23026 78.53897 32782 ft 478 kts 93°
2026-04-25 21:59 23.22680 78.61084 32779 ft 479 kts 93°
2026-04-25 21:59 23.22329 78.68329 32779 ft 480 kts 94°
2026-04-25 22:00 23.21893 78.79232 32781 ft 482 kts 91°
2026-04-25 22:00 23.21825 78.86523 32782 ft 483 kts 91°
2026-04-25 22:01 23.21758 78.93838 32778 ft 484 kts 91°
2026-04-25 22:01 23.21677 78.99934 32774 ft 485 kts 91°
2026-04-25 22:02 23.21542 79.08470 32775 ft 486 kts 91°
2026-04-25 22:02 23.21421 79.15832 32775 ft 487 kts 91°
2026-04-25 22:03 23.21297 79.23191 32773 ft 487 kts 91°
2026-04-25 22:03 23.21172 79.30484 32757 ft 484 kts 91°
2026-04-25 22:04 23.21044 79.37777 32777 ft 485 kts 91°
2026-04-25 22:04 23.20910 79.45183 32778 ft 492 kts 91°
2026-04-25 22:05 23.20773 79.52626 32778 ft 493 kts 91°
2026-04-25 22:05 23.20602 79.60089 32768 ft 494 kts 92°
2026-04-25 22:06 23.20281 79.67559 32765 ft 494 kts 93°
2026-04-25 22:06 23.19937 79.74981 32771 ft 494 kts 93°
2026-04-25 22:07 23.19662 79.81236 32770 ft 494 kts 93°
2026-04-25 22:07 23.19290 79.89916 32768 ft 494 kts 93°
2026-04-25 22:08 23.18965 79.97391 32763 ft 495 kts 93°
2026-04-25 22:08 23.18636 80.04870 32769 ft 495 kts 93°
2026-04-25 22:09 23.18280 80.12303 32763 ft 496 kts 94°
2026-04-25 22:09 23.17886 80.19785 32764 ft 496 kts 94°
2026-04-25 22:10 23.17490 80.27290 32760 ft 497 kts 94°
2026-04-25 22:10 23.17095 80.34806 32762 ft 499 kts 94°
2026-04-25 22:11 23.16697 80.42348 32767 ft 500 kts 94°
2026-04-25 22:11 23.16298 80.49843 32768 ft 501 kts 94°
2026-04-25 22:12 23.15890 80.57420 32766 ft 502 kts 94°
2026-04-25 22:12 23.15616 80.62489 32766 ft 503 kts 94°
2026-04-25 22:13 23.15063 80.72608 32768 ft 505 kts 94°
2026-04-25 22:13 23.14645 80.80229 32770 ft 506 kts 94°
2026-04-25 22:14 23.14231 80.87867 32771 ft 507 kts 94°
2026-04-25 22:14 23.13815 80.95527 32770 ft 508 kts 94°
2026-04-25 22:15 23.13393 81.03203 32774 ft 509 kts 94°
2026-04-25 22:16 23.12754 81.14694 32775 ft 511 kts 94°
2026-04-25 22:16 23.12322 81.22402 32778 ft 511 kts 95°
2026-04-25 22:17 23.11882 81.30126 32776 ft 513 kts 95°
2026-04-25 22:17 23.11437 81.37883 32776 ft 514 kts 95°
2026-04-25 22:18 23.11064 81.44334 32766 ft 515 kts 95°
2026-04-25 22:18 23.10611 81.52131 32766 ft 516 kts 95°
2026-04-25 22:19 23.10153 81.59940 32765 ft 517 kts 95°
2026-04-25 22:19 23.09693 81.67706 32761 ft 518 kts 95°
2026-04-25 22:20 23.09227 81.75527 32768 ft 519 kts 95°
2026-04-25 22:20 23.08756 81.83364 32758 ft 520 kts 95°
2026-04-25 22:21 23.08280 81.91213 32761 ft 520 kts 95°
2026-04-25 22:21 23.07800 81.99053 32757 ft 520 kts 95°
2026-04-25 22:22 23.07320 82.06855 32760 ft 521 kts 95°
2026-04-25 22:22 23.06832 82.14710 32758 ft 521 kts 95°
2026-04-25 22:23 23.06405 82.22580 32763 ft 522 kts 94°
2026-04-25 22:23 23.06086 82.30455 32759 ft 522 kts 94°
2026-04-25 22:24 23.05768 82.38343 32762 ft 523 kts 94°
2026-04-25 22:24 23.05430 82.46198 32758 ft 524 kts 94°
2026-04-25 22:25 23.05076 82.54105 32759 ft 525 kts 95°
2026-04-25 22:25 23.04715 82.62047 32761 ft 526 kts 95°
2026-04-25 22:26 23.04351 82.69994 32761 ft 528 kts 94°
2026-04-25 22:26 23.03982 82.77975 32760 ft 529 kts 95°
2026-04-25 22:27 23.03611 82.85916 32762 ft 530 kts 95°
2026-04-25 22:27 23.03234 82.93919 32766 ft 531 kts 95°
2026-04-25 22:28 23.02852 83.01923 32775 ft 531 kts 95°
2026-04-25 22:28 23.02466 83.09931 32778 ft 531 kts 95°
2026-04-25 22:29 23.02075 83.17946 32783 ft 531 kts 95°
2026-04-25 22:29 23.01681 83.25945 32795 ft 531 kts 95°
2026-04-25 22:30 23.01083 83.37938 32803 ft 531 kts 95°
2026-04-25 22:30 23.00747 83.44593 32817 ft 530 kts 95°
2026-04-25 22:31 23.00273 83.53889 32825 ft 531 kts 95°
2026-04-25 22:31 22.99861 83.61907 32831 ft 531 kts 95°
2026-04-25 22:32 22.99444 83.69919 32835 ft 532 kts 95°
2026-04-25 22:32 22.99022 83.77938 32855 ft 532 kts 95°
2026-04-25 22:33 22.98597 83.85960 32846 ft 532 kts 95°
2026-04-25 22:33 22.98170 83.93945 32851 ft 533 kts 95°
2026-04-25 22:34 22.97736 84.01977 32848 ft 534 kts 95°
2026-04-25 22:34 22.97298 84.10020 32858 ft 534 kts 95°
2026-04-25 22:35 22.96814 84.18073 32861 ft 535 kts 96°
2026-04-25 22:35 22.96218 84.26134 32856 ft 536 kts 96°
2026-04-25 22:36 22.95606 84.34209 32866 ft 536 kts 96°
2026-04-25 22:36 22.95008 84.42280 32865 ft 537 kts 96°
2026-04-25 22:37 22.94417 84.50328 32869 ft 538 kts 96°
2026-04-25 22:37 22.93819 84.58419 32868 ft 539 kts 96°
2026-04-25 22:38 22.93214 84.66537 32869 ft 539 kts 96°
2026-04-25 22:38 22.92605 84.74643 32871 ft 539 kts 96°
2026-04-25 22:39 22.91991 84.82753 32874 ft 540 kts 96°
2026-04-25 22:39 22.91377 84.90827 32876 ft 540 kts 96°
2026-04-25 22:40 22.90754 84.98949 32873 ft 540 kts 96°
2026-04-25 22:40 22.90127 85.07073 32877 ft 540 kts 96°
2026-04-25 22:41 22.89497 85.15194 32879 ft 540 kts 96°
2026-04-25 22:41 22.88872 85.23270 32874 ft 540 kts 96°
2026-04-25 22:42 22.88243 85.31403 32873 ft 541 kts 96°
2026-04-25 22:42 22.87608 85.39548 32871 ft 541 kts 96°
2026-04-25 22:43 22.86976 85.47590 32836 ft 538 kts 96°
2026-04-25 22:43 22.86654 85.51666 32458 ft 545 kts 96°
2026-04-25 22:43 22.86329 85.55760 32065 ft 543 kts 96°
2026-04-25 22:44 22.86007 85.59821 31705 ft 537 kts 96°
2026-04-25 22:44 22.85687 85.63840 31350 ft 533 kts 96°
2026-04-25 22:44 22.85371 85.67788 31000 ft 532 kts 96°
2026-04-25 22:44 22.85051 85.71783 30654 ft 531 kts 96°
2026-04-25 22:45 22.84730 85.75768 30303 ft 529 kts 96°
2026-04-25 22:45 22.84409 85.79733 29965 ft 527 kts 96°
2026-04-25 22:45 22.84089 85.83685 29569 ft 526 kts 96°
2026-04-25 22:45 22.83769 85.87625 29170 ft 524 kts 96°
2026-04-25 22:46 22.83449 85.91560 28777 ft 523 kts 96°
2026-04-25 22:46 22.83128 85.95488 28384 ft 522 kts 96°
2026-04-25 22:46 22.82806 85.99412 28002 ft 521 kts 96°
2026-04-25 22:46 22.82484 86.03322 27623 ft 521 kts 96°
2026-04-25 22:47 22.82162 86.07231 27252 ft 520 kts 95°
2026-04-25 22:47 22.81843 86.11084 26889 ft 520 kts 95°
2026-04-25 22:47 22.81520 86.14980 26524 ft 519 kts 95°
2026-04-25 22:47 22.81203 86.18874 26167 ft 519 kts 95°
2026-04-25 22:48 22.80949 86.22778 25810 ft 518 kts 94°
2026-04-25 22:48 22.80743 86.26694 25457 ft 517 kts 93°
2026-04-25 22:48 22.80557 86.30582 25113 ft 516 kts 93°
2026-04-25 22:48 22.80373 86.34460 24770 ft 513 kts 93°
2026-04-25 22:49 22.80184 86.38307 24429 ft 510 kts 93°
2026-04-25 22:49 22.79988 86.42127 24092 ft 505 kts 93°
2026-04-25 22:49 22.79788 86.45863 23762 ft 500 kts 93°
2026-04-25 22:49 22.79584 86.49611 23433 ft 495 kts 93°
2026-04-25 22:50 22.79378 86.53323 23046 ft 490 kts 93°
2026-04-25 22:50 22.79174 86.56989 22650 ft 486 kts 93°
2026-04-25 22:50 22.78970 86.60632 22271 ft 482 kts 93°
2026-04-25 22:50 22.78768 86.64238 21891 ft 478 kts 93°
2026-04-25 22:51 22.78567 86.67818 21508 ft 474 kts 93°
2026-04-25 22:51 22.78366 86.71381 21148 ft 471 kts 93°
2026-04-25 22:51 22.78167 86.74911 20780 ft 468 kts 93°
2026-04-25 22:51 22.77968 86.78429 20420 ft 465 kts 93°
2026-04-25 22:52 22.77771 86.81880 20066 ft 463 kts 93°
2026-04-25 22:52 22.77573 86.85353 19848 ft 461 kts 93°
2026-04-25 22:52 22.77374 86.88821 19819 ft 461 kts 93°
2026-04-25 22:52 22.77240 86.91158 19813 ft 459 kts 93°
2026-04-25 22:53 22.76979 86.95666 19791 ft 441 kts 93°
2026-04-25 22:53 22.76790 86.98921 19637 ft 427 kts 93°
2026-04-25 22:53 22.76604 87.02109 19267 ft 420 kts 92°
2026-04-25 22:53 22.76421 87.05236 18914 ft 413 kts 92°
2026-04-25 22:54 22.76241 87.08313 18584 ft 406 kts 92°
2026-04-25 22:54 22.76063 87.11348 18247 ft 400 kts 92°
2026-04-25 22:54 22.75887 87.14338 17880 ft 395 kts 92°
2026-04-25 22:54 22.75712 87.17287 17497 ft 391 kts 92°
2026-04-25 22:55 22.75539 87.20217 17124 ft 389 kts 92°
2026-04-25 22:55 22.75366 87.23130 16740 ft 386 kts 92°
2026-04-25 22:55 22.75195 87.25991 16379 ft 384 kts 92°
2026-04-25 22:55 22.75022 87.28878 16009 ft 383 kts 92°
2026-04-25 22:56 22.74850 87.31749 15652 ft 381 kts 92°
2026-04-25 22:56 22.74678 87.34608 15293 ft 380 kts 92°
2026-04-25 22:56 22.74505 87.37461 14942 ft 378 kts 92°
2026-04-25 22:56 22.74333 87.40304 14588 ft 377 kts 92°
2026-04-25 22:57 22.74161 87.43141 14238 ft 376 kts 92°
2026-04-25 22:57 22.73989 87.45966 13896 ft 375 kts 92°
2026-04-25 22:57 22.73816 87.48794 13551 ft 374 kts 91°
2026-04-25 22:57 22.73646 87.51572 13177 ft 374 kts 92°
2026-04-25 22:58 22.73474 87.54375 12799 ft 373 kts 92°
2026-04-25 22:58 22.73301 87.57173 12428 ft 371 kts 92°
2026-04-25 22:58 22.73129 87.59956 12061 ft 370 kts 92°
2026-04-25 22:58 22.72957 87.62740 11695 ft 368 kts 92°
2026-04-25 22:59 22.72785 87.65502 11333 ft 366 kts 92°
2026-04-25 22:59 22.72614 87.68246 10974 ft 364 kts 92°
2026-04-25 22:59 22.72443 87.70973 10619 ft 362 kts 92°
2026-04-25 22:59 22.72273 87.73688 10274 ft 359 kts 92°
2026-04-25 23:00 22.72104 87.76374 9928 ft 356 kts 92°
2026-04-25 23:00 22.71938 87.79012 9806 ft 344 kts 92°
2026-04-25 23:00 22.71777 87.81550 9776 ft 331 kts 92°
2026-04-25 23:00 22.71624 87.83955 9767 ft 317 kts 92°
2026-04-25 23:01 22.71473 87.86328 9771 ft 314 kts 92°
2026-04-25 23:01 22.71323 87.88692 9768 ft 315 kts 92°
2026-04-25 23:01 22.71171 87.91085 9513 ft 319 kts 93°
2026-04-25 23:01 22.71018 87.93488 9275 ft 319 kts 93°
2026-04-25 23:02 22.70865 87.95875 9016 ft 315 kts 93°
2026-04-25 23:02 22.70715 87.98224 8771 ft 311 kts 93°
2026-04-25 23:02 22.70565 88.00546 8522 ft 307 kts 94°
2026-04-25 23:02 22.70419 88.02812 8275 ft 304 kts 94°
2026-04-25 23:03 22.70272 88.05082 8032 ft 300 kts 94°
2026-04-25 23:03 22.70127 88.07326 7786 ft 297 kts 94°
2026-04-25 23:03 22.70010 88.09122 7597 ft 294 kts 94°
2026-04-25 23:03 22.69866 88.11351 7350 ft 291 kts 95°
2026-04-25 23:04 22.69724 88.13530 7116 ft 289 kts 95°
2026-04-25 23:04 22.69630 88.14967 6959 ft 287 kts 95°
2026-04-25 23:04 22.69443 88.17840 6650 ft 284 kts 94°
2026-04-25 23:04 22.69774 88.19929 6395 ft 285 kts 62°
2026-04-25 23:05 22.71109 88.21439 6173 ft 278 kts 25°
2026-04-25 23:05 22.72927 88.22013 5974 ft 270 kts
2026-04-25 23:05 22.74719 88.22508 5727 ft 269 kts 16°
2026-04-25 23:05 22.76468 88.23234 5483 ft 269 kts 22°
2026-04-25 23:06 22.78133 88.24146 5245 ft 268 kts 28°
2026-04-25 23:06 22.79720 88.25213 5004 ft 267 kts 34°
2026-04-25 23:06 22.81211 88.26406 4773 ft 266 kts 39°
2026-04-25 23:06 22.82607 88.27725 4536 ft 265 kts 44°
2026-04-25 23:07 22.83469 88.28661 4377 ft 264 kts 47°
2026-04-25 23:07 22.84671 88.30165 4138 ft 263 kts 53°
2026-04-25 23:07 22.85747 88.31777 4046 ft 262 kts 58°
2026-04-25 23:07 22.86935 88.33976 3990 ft 247 kts 64°
2026-04-25 23:08 22.87430 88.35093 3976 ft 240 kts 68°
2026-04-25 23:08 22.88060 88.36731 3999 ft 233 kts 72°
2026-04-25 23:08 22.88574 88.38367 4008 ft 224 kts 76°
2026-04-25 23:08 22.88947 88.39995 3733 ft 224 kts 82°
2026-04-25 23:09 22.89189 88.41656 3399 ft 222 kts 85°
2026-04-25 23:09 22.89348 88.43302 3058 ft 221 kts 90°
2026-04-25 23:09 22.89276 88.44951 2670 ft 216 kts 112°
2026-04-25 23:09 22.88506 88.46282 2333 ft 205 kts 143°
2026-04-25 23:10 22.87311 88.47023 2055 ft 192 kts 167°
2026-04-25 23:10 22.86061 88.47171 2003 ft 172 kts 186°
2026-04-25 23:10 22.84863 88.47049 2014 ft 174 kts 188°
2026-04-25 23:10 22.83663 88.46907 2006 ft 172 kts 188°
2026-04-25 23:11 22.82497 88.46768 1995 ft 169 kts 187°
2026-04-25 23:11 22.81334 88.46632 2003 ft 168 kts 188°
2026-04-25 23:11 22.80168 88.46497 2010 ft 168 kts 188°
2026-04-25 23:11 22.79006 88.46365 2022 ft 165 kts 187°
2026-04-25 23:12 22.77891 88.46239 2005 ft 158 kts 188°
2026-04-25 23:12 22.76802 88.46112 1889 ft 156 kts 188°
2026-04-25 23:12 22.75757 88.45989 1711 ft 144 kts 188°
2026-04-25 23:12 22.74800 88.45876 1522 ft 134 kts 187°
2026-04-25 23:13 22.73878 88.45768 1365 ft 132 kts 187°
2026-04-25 23:13 22.72973 88.45661 1196 ft 136 kts 187°
2026-04-25 23:13 22.71989 88.45545 1020 ft 144 kts 187°
2026-04-25 23:13 22.70996 88.45427 837 ft 144 kts 186°
2026-04-25 23:14 22.69989 88.45309 646 ft 145 kts 185°
2026-04-25 23:14 22.68977 88.45190 429 ft 147 kts 184°
2026-04-25 23:14 22.67940 88.45069 311 ft 153 kts 183°
2026-04-25 23:14 22.66871 88.44945 83 ft 154 kts 183°
2026-04-25 23:15 22.65852 88.44828 29 ft 124 kts 184°
2026-04-25 23:15 22.65247 88.44757 27 ft 42 kts 186°
2026-04-25 23:15 22.65027 88.44722 27 ft 30 kts 194°
2026-04-25 23:15 22.64868 88.44637 25 ft 12 kts 213°
2026-04-25 23:16 22.64801 88.44588 25 ft 12 kts 214°
2026-04-25 23:16 22.64727 88.44535 25 ft 13 kts 213°
2026-04-25 23:16 22.64660 88.44481 27 ft 10 kts 234°
2026-04-25 23:16 22.64660 88.44407 27 ft 10 kts 276°
2026-04-25 23:17 22.64618 88.44361 27 ft 10 kts 189°
2026-04-25 23:17 22.64551 88.44353 27 ft 10 kts 187°
2026-04-25 23:17 22.64482 88.44344 27 ft 11 kts 185°
2026-04-25 23:17 22.64395 88.44334 28 ft 13 kts 186°
2026-04-25 23:18 22.64307 88.44324 28 ft 13 kts 186°
2026-04-25 23:18 22.64221 88.44314 28 ft 12 kts 186°
2026-04-25 23:18 22.64137 88.44304 27 ft 12 kts 186°
2026-04-25 23:18 22.64055 88.44294 27 ft 12 kts 186°
2026-04-25 23:19 22.64006 88.44244 27 ft 11 kts 275°
2026-04-25 23:19 22.64015 88.44159 28 ft 11 kts 277°
2026-04-25 23:19 22.64033 88.44080 28 ft 11 kts 303°
2026-04-25 23:19 22.64084 88.44027 28 ft 1 kts 317°